This demonstration page uses our WeatherBlox Daily Observations layout. Learn more.

Hourly Observations for July 4, 2018

Temp ( °F °C ) Dew Point ( °F °C ) Humidity (%) Winds ( mph kmh ) Pressure ( in mb ) Visibility ( mi km ) Precip ( " mm )
12:15 am 00:15 Clear 75 24 68 19.9 78 78 SSE 9 15 29.88 1012 10 16.0934 0 0
12:35 am 00:35 Clear 74 23.6 68 20 80 80 SSE 7 11 29.88 1012 10 16.0934 0 0
12:55 am 00:55 Clear 75 24 68 19.8 77 77 SSE 9 15 29.88 1012 10 16.0934 0 0
1:15 am 01:15 Clear 75 24 68 20 78 78 SSE 10 17 29.88 1012 10 16.0934 0 0
1:35 am 01:35 Clear 75 24 68 20 78 78 SSE 10 17 29.88 1012 10 16.0934 0 0
1:55 am 01:55 Clear 75 24.1 68 20.2 79 79 SSE 12 19 29.88 1012 10 16.0934 0 0
2:15 am 02:15 Clear 75 24 69 20.3 80 80 SSE 9 15 29.88 1012 10 16.0934 0 0
2:35 am 02:35 Clear 76 24.2 69 20.5 80 80 S 9 15 29.91 1013 10 16.0934 0 0
2:55 am 02:55 Clear 75 23.7 69 20.5 82 82 SSE 9 15 29.88 1012 10 16.0934 0 0
3:15 am 03:15 Clear 74 23.3 69 20.7 85 85 SSE 8 13 29.88 1012 10 16.0934 0 0
3:35 am 03:35 Clear 74 23.3 70 21 87 87 SSE 7 11 29.94 1014 10 16.0934 0 0
3:55 am 03:55 Mostly Cloudy 74 23.2 70 21.2 89 89 SSE 6 9 29.94 1014 10 16.0934 0 0
4:15 am 04:15 Cloudy 73 23 70 21.2 90 90 NNW 8 13 29.97 1015 10 16.0934 0 0
4:35 am 04:35 Cloudy 75 24 71 21.7 87 87 SSW 5 7 29.94 1014 10 16.0934 0 0
4:55 am 04:55 Mostly Cloudy 75 23.7 71 21.6 88 88 NNE 6 9 29.94 1014 10 16.0934 0 0
5:15 am 05:15 Partly Cloudy 73 22.8 71 21.7 94 94 E 5 7 29.97 1015 10 16.0934 0 0
5:35 am 05:35 Partly Cloudy 72 22.1 70 21.3 95 95 NE 5 7 29.97 1015 10 16.0934 0 0
5:55 am 05:55 Partly Cloudy 72 22.2 71 21.6 96 96 E 7 11 29.97 1015 10 16.0934 0 0
6:15 am 06:15 Partly Cloudy 72 22 71 21.4 96 96 E 7 11 29.97 1015 10 16.0934 0 0
6:35 am 06:35 Partly Cloudy 72 22.2 71 21.5 96 96 E 9 15 29.97 1015 10 16.0934 0 0
6:55 am 06:55 Sunny 72 22.2 71 21.4 95 95 ESE 9 15 29.97 1015 10 16.0934 0 0
7:15 am 07:15 Sunny 73 22.7 71 21.5 93 93 SE 9 15 29.97 1015 10 16.0934 0 0
7:35 am 07:35 Sunny 74 23.1 70 21.3 90 90 SE 8 13 29.97 1015 10 16.0934 0 0
7:55 am 07:55 Sunny 74 23.5 71 21.5 89 89 SE 8 13 29.97 1015 10 16.0934 0 0
8:15 am 08:15 Sunny 75 24 71 21.4 85 85 SE 10 17 29.94 1014 10 16.0934 0 0
8:35 am 08:35 Sunny 76 24.4 71 21.5 84 84 SSE 12 19 29.94 1014 10 16.0934 0 0
8:55 am 08:55 Sunny 78 25.3 70 21.2 78 78 SSE 12 19 29.94 1014 10 16.0934 0 0
9:15 am 09:15 Sunny 79 26.2 70 21 73 73 SSE 14 22 29.94 1014 10 16.0934 0 0
9:35 am 09:35 Sunny 81 27 69 20.4 67 67 S 14 22 29.94 1014 10 16.0934 0 0
9:55 am 09:55 Sunny 82 27.5 69 20.3 65 65 SSE 17 28 29.91 1013 10 16.0934 0 0
10:15 am 10:15 Sunny 82 27.9 69 20.3 63 63 S 16 26 29.91 1013 10 16.0934 0 0
10:35 am 10:35 Sunny 83 28.3 69 20.8 64 64 SSE 17 28 29.94 1014 10 16.0934 0 0
10:55 am 10:55 Sunny 84 28.7 69 20.7 62 62 SSE 20 31 29.91 1013 10 16.0934 0 0
11:15 am 11:15 Sunny 85 29.3 68 20.2 58 58 S 15 24 29.94 1014 10 16.0934 0 0
11:35 am 11:35 Sunny 86 30 68 20 55 55 S 16 26 29.91 1013 10 16.0934 0 0
11:55 am 11:55 Sunny 86 30.2 68 20.2 55 55 SSE 21 33 29.91 1013 10 16.0934 0 0
12:15 pm 12:15 Sunny 87 30.8 69 20.4 54 54 SSE 16 26 29.94 1014 10 16.0934 0 0
12:35 pm 12:35 Sunny 88 31.1 68 20 52 52 SSE 20 31 29.94 1014 10 16.0934 0 0
12:55 pm 12:55 Sunny 89 31.5 70 21.1 54 54 SSE 15 24 29.94 1014 10 16.0934 0 0
1:15 pm 13:15 Sunny 90 32 70 21.3 53 53 SSE 14 22 29.91 1013 10 16.0934 0 0
1:35 pm 13:35 Sunny 90 32.2 70 21.3 53 53 SSE 16 26 29.91 1013 10 16.0934 0 0
1:55 pm 13:55 Sunny 91 32.5 70 21.2 51 51 SSE 17 28 29.91 1013 10 16.0934 0 0
2:15 pm 14:15 Partly Cloudy 91 32.6 70 21.3 51 51 SSE 12 19 29.91 1013 10 16.0934 0 0
2:35 pm 14:35 Partly Cloudy 91 32.6 69 20.4 49 49 SSE 13 20 29.91 1013 10 16.0934 0 0
2:55 pm 14:55 Partly Cloudy 91 33 71 21.9 52 52 SSE 12 19 29.91 1013 10 16.0934 0 0
3:15 pm 15:15 Partly Cloudy 92 33.1 71 21.5 51 51 SSE 13 20 29.91 1013 10 16.0934 0 0
3:35 pm 15:35 Sunny 92 33.2 70 21.1 49 49 SSE 12 19 29.91 1013 10 16.0934 0 0
3:55 pm 15:55 Sunny 92 33.3 69 20.3 46 46 S 13 20 29.91 1013 10 16.0934 0 0
4:15 pm 16:15 Sunny 92 33.2 70 21 49 49 S 10 17 29.91 1013 10 16.0934 0 0
4:35 pm 16:35 Sunny 92 33.2 69 20.3 47 47 S 13 20 29.91 1013 10 16.0934 0 0
4:55 pm 16:55 Sunny 91 33 70 21 49 49 S 9 15 29.91 1013 10 16.0934 0 0
5:15 pm 17:15 Sunny 91 33 71 21.6 51 51 S 9 15 29.94 1014 10 16.0934 0 0
5:35 pm 17:35 Sunny 91 32.9 71 21.4 51 51 SSE 9 15 29.91 1013 10 16.0934 0 0
5:55 pm 17:55 Sunny 91 32.6 71 21.7 53 53 SSE 9 15 29.91 1013 10 16.0934 0 0
6:15 pm 18:15 Sunny 90 32.3 71 21.6 53 53 SSE 8 13 29.91 1013 10 16.0934 0 0
6:35 pm 18:35 Sunny 90 32 71 21.9 55 55 SSE 8 13 29.91 1013 10 16.0934 0 0
6:55 pm 18:55 Sunny 89 31.5 71 21.6 56 56 SSE 8 13 29.94 1014 10 16.0934 0 0
7:15 pm 19:15 Sunny 88 31.3 71 21.4 56 56 SSE 8 13 29.94 1014 10 16.0934 0 0
7:35 pm 19:35 Sunny 87 30.7 72 22 60 60 S 5 7 29.94 1014 10 16.0934 0 0
7:55 pm 19:55 Sunny 86 30.2 72 22 62 62 SSE 5 7 29.97 1015 10 16.0934 0 0
8:15 pm 20:15 Sunny 84 29 72 22 66 66 SE 5 7 29.97 1015 10 16.0934 0 0
8:35 pm 20:35 Sunny 81 27.3 73 22.9 77 77 SE 7 11 30 1016 10 16.0934 0 0
8:55 pm 20:55 Sunny 80 26.4 72 22 77 77 SE 7 11 30 1016 10 16.0934 0 0
9:15 pm 21:15 Clear 78 25.6 72 22.1 81 81 ESE 9 15 30 1016 10 16.0934 0 0
9:35 pm 21:35 Clear 76 24.6 71 21.8 84 84 ESE 7 11 30.06 1018 10 16.0934 0 0
9:55 pm 21:55 Mostly Cloudy 78 25.4 70 20.9 76 76 E 8 13 30.06 1018 10 16.0934 0 0
10:15 pm 22:15 Cloudy 76 24.6 69 20.4 78 78 E 8 13 30.09 1019 10 16.0934 0 0
10:35 pm 22:35 Mostly Cloudy with Nearby Thunderstorms 76 24.4 69 20.6 79 79 NE 12 19 30.12 1020 10 16.0934 0 0
10:55 pm 22:55 Cloudy 76 24.3 67 19.7 76 76 ENE 15 24 30.12 1020 10 16.0934 0 0
11:15 pm 23:15 Cloudy with Nearby Thunderstorms 72 22.2 66 19 82 82 ENE 24 39 30.12 1020 10 16.0934 0 0
11:35 pm 23:35 Mostly Cloudy 71 21.5 65 18.5 83 83 ENE 17 28 30.15 1021 10 16.0934 0 0
11:55 pm 23:55 Mostly Cloudy 70 20.9 64 17.8 83 83 ENE 13 20 30.18 1022 10 16.0934 0 0

Powered by AerisWeather